User: anonymous   Login
Location: Unspecified
(0.0000°N, 0.0000°E)
Time: 10:52:16
(UTC+00:00)
Language:

EXPRESS AT2 - Orbit

View from above orbital plane
View from above orbital plane
View from above satellite
View from above satellite

Ground track
Ground track

The orbit is defined by the following mean orbital elements,

1 39613U          26145.52354509 +.00000000 +00000-0 +00000-0 0 00006
2 39613   0.0106 317.5462 0000585  23.4417 146.6060  1.00275903    08
Epoch (UTC): 25 May 2026 12:33:54
Eccentricity: 0.0000585
inclination: 0.0106°
perigee height: 35783 km
apogee height: 35788 km
right ascension of ascending node: 317.5462°
argument of perigee: 23.4417°
revolutions per day: 1.00275903
mean anomaly at epoch: 146.6060°

The dashed part of the orbit path shows where the satellite is in the earth's shadow,  

DLR